Home   Weather   Curitiba   Past weeks

Flag for Brazil Past Weather in Curitiba, Paraná, Brazil — Yesterday and Last 2 Weeks

Now
55 °F

Partly cloudy.


Feels Like: 54 °F
Forecast: N/A
Wind: 6 mph from Southeast

Location: Curitiba Aeroporto

Current Time: Aug 17, 2017 at 8:04:54 pm

Latest Report: Aug 17, 2017 at 7:00 pm


Visibility: N/A

Pressure: 30.18 "Hg (27.06 "Hg at 915m altitude)

Humidity: 94%

Dew Point: 54 °F

Location of CuritibaLocation

Past Weather in Curitiba — Graph

°F

Curitiba Temperature Yesterday

Maximum temperature yesterday: 64 °F (at 2:00 pm)
Minimum temperature yesterday: 54 °F (at 12:00 am)
Average temperature yesterday: 57 °F

High & Low Weather Summary for the Past Weeks

 TemperatureHumidityPressure
High81 °F (Aug 8, 2:00 pm)100% (Aug 3, 3:00 am)30.36 "Hg (Aug 3, 3:00 am)
Low43 °F (Aug 7, 6:00 am)34% (Aug 8, 12:00 pm)29.89 "Hg (Aug 13, 3:00 pm)
Average58 °F85%30.15 "Hg
* Reported Aug 2 6:00 pm — Aug 17 6:00 pm, Curitiba. Weather by CustomWeather, © 2017

Note: Actual official high and low records may vary slightly from our data, if they occured in-between our weather recording intervals... More about our weather records

Advertising

Curitiba Weather History for the Previous 24 Hours

Scroll right to see more
 ConditionsComfort  
Time TempWeatherWind HumidityBarometerVisibility
6:00 pm
Thu, Aug 17
57 °FPassing clouds.9 mph94%30.18 "HgN/A
5:00 pm59 °FMostly cloudy.6 mph88%30.15 "HgN/A
4:00 pm59 °FMostly cloudy.13 mph88%30.15 "HgN/A
3:00 pm59 °FMostly cloudy.9 mph88%30.15 "HgN/A
2:00 pm61 °FPartly sunny.8 mph88%30.15 "HgN/A
1:00 pm61 °FPartly sunny.9 mph83%30.18 "HgN/A
12:00 pm61 °FPartly sunny.6 mph83%30.18 "HgN/A
11:00 am59 °FPartly sunny.5 mph88%30.21 "Hg6 mi
10:00 am57 °FLow clouds.8 mph94%30.21 "Hg4 mi
9:00 am55 °FMostly cloudy.7 mph100%30.21 "HgN/A
8:00 am54 °FPartly sunny.6 mph100%30.18 "Hg4 mi
7:00 am54 °FCloudy.6 mph100%30.18 "Hg4 mi
6:00 am54 °FFog.7 mph100%30.18 "Hg3 mi
5:00 am54 °FFog.5 mph100%30.15 "Hg2 mi
4:00 am50 °FFog.6 mph100%30.12 "Hg1 mi
2:30 am52 °FFog.3 mph100%30.15 "Hg1 mi
12:40 am52 °FPartly cloudy.5 mph100%30.15 "Hg4 mi
12:00 am52 °FPartly cloudy.7 mph100%30.18 "HgN/A
11:00 pm
Wed, Aug 16
54 °FPartly cloudy.3 mph100%30.18 "HgN/A
10:30 pm54 °FPartly cloudy.5 mph100%30.18 "HgN/A
10:00 pm54 °FPassing clouds.3 mph100%30.18 "HgN/A
9:00 pm55 °FPassing clouds.6 mph100%30.18 "HgN/A
8:00 pm57 °FPassing clouds.6 mph94%30.15 "HgN/A
Weather by CustomWeather, © 2017

See weather overviewHow to use our weather pages